[[{"header":{"parameterUnit":"m.s-1","parameterCategory":2,"la1":30.2991,"la2":30.254,"lo1":-89.0895,"lo2":-89.0444,"dy":0.0017,"dx":0.0017,"nx":28,"ny":28,"refTime":"2024-02-17T09:00:00:Z","depth":"0","parameterNumber":2,"parameterNumberName":"U-component_of_CURRENTS"},"data":[0,0,0,0,0,0,0,0,0,0,0,0,0,0,0,0,0,0,0,0,0,0,0,0,0,0,0,0,0,0,0,0,0,0,0,0,0,0,0,0,0,0,0,0,0,0,0,0,0,0,0,0,0,0,0,0,0,0,-0.3022,-0.3022,0,-0.3054,-0.3055,-0.3055,-0.3027,-0.3026,-0.3025,-0.3024,-0.3016,-0.3016,-0.3017,0,0,0,0,0,0,0,0,0,0,0,0,0,-0.2957,-0.2958,-0.3022,-0.3022,-0.3023,-0.3054,-0.3055,-0.3055,-0.3027,-0.3026,-0.3025,-0.3024,-0.3015,-0.3016,-0.3017,0,0,0,0,0,0,0,0,0,0,0,0,0,-0.2985,-0.2958,-0.3022,-0.3015,-0.3014,-0.3054,-0.3055,-0.3055,-0.3028,-0.3026,-0.3025,-0.3023,-0.3015,-0.3016,-0.3017,-0.3052,0,0,-0.302,-0.3021,0,0,0,0,0,0,0,0,-0.2983,-0.2987,-0.3015,-0.3015,-0.3015,-0.3037,-0.3029,-0.3053,-0.3028,-0.302,-0.3024,-0.3023,-0.3021,-0.3022,-0.3029,-0.3051,-0.3051,-0.302,-0.3021,-0.3021,-0.3021,0,0,0,0,0,0,0,-0.2981,-0.2985,-0.3032,-0.3016,-0.3016,-0.3017,-0.3019,-0.3033,-0.3026,-0.3021,-0.302,-0.3027,-0.3021,-0.3028,-0.3028,-0.3051,-0.302,-0.3021,-0.3022,-0.3022,-0.3074,-0.3075,0,0,0,0,0,0,-0.2982,-0.2984,-0.3031,-0.3034,-0.2998,-0.302,-0.3022,-0.303,-0.3027,-0.3026,-0.3028,-0.3026,-0.3027,-0.3027,-0.3028,-0.3052,-0.3021,-0.3022,-0.3023,-0.3073,-0.3074,-0.3075,0,0,0,0,0,0,-0.2981,-0.2986,-0.303,-0.3011,-0.3017,-0.3022,-0.3032,-0.3031,-0.3033,-0.3033,-0.3031,-0.3029,-0.3026,-0.3026,-0.3036,-0.3051,-0.3023,-0.3023,-0.3072,-0.3074,-0.3075,-0.311,0,0,0,0,0,0,-0.2979,-0.2985,-0.2988,-0.3011,-0.3018,-0.3053,-0.3033,-0.3033,-0.3041,-0.3038,-0.3034,-0.3032,-0.3025,-0.3034,-0.3037,-0.3052,-0.3024,-0.3071,-0.3073,-0.3074,-0.3108,-0.3112,-0.3116,0,0,0,0,0,-0.2976,-0.2987,-0.2988,-0.2994,-0.3023,-0.3054,-0.3057,-0.3055,-0.3042,-0.3049,-0.3043,-0.3032,-0.3045,-0.3036,-0.3039,-0.3055,-0.3071,-0.3073,-0.3074,-0.3106,-0.3111,-0.3116,0,0,0,0,0,0,-0.2958,-0.2987,-0.2988,-0.3006,-0.3028,-0.305,-0.3056,-0.3059,-0.3062,-0.3054,-0.3045,-0.3044,-0.3059,-0.3054,-0.3044,-0.3074,-0.3055,-0.3058,-0.3079,-0.3084,-0.3088,-0.3087,-0.3025,0,0,0,0,0,-0.2958,-0.2971,-0.3001,-0.3014,-0.3026,-0.3042,-0.3053,-0.3057,-0.3066,-0.3065,-0.3063,-0.3062,-0.3073,-0.3074,-0.3081,-0.3101,-0.3087,-0.3111,-0.3115,-0.3119,-0.312,-0.3116,-0.3119,-0.3081,-0.3081,-0.3081,0,0,-0.2953,-0.2971,-0.2977,-0.301,-0.3024,-0.3054,-0.3044,-0.3065,-0.3086,-0.3066,-0.3082,-0.308,-0.3082,-0.31,-0.3106,-0.3095,-0.3122,-0.3121,-0.3124,-0.3123,-0.3118,-0.3122,-0.3125,-0.3082,-0.3082,-0.3082,0,0,-0.2957,-0.2968,-0.2984,-0.3009,-0.3041,-0.3058,-0.3066,-0.3092,-0.3096,-0.312,-0.3109,-0.3113,-0.3129,-0.313,-0.3135,-0.3168,-0.3147,-0.3171,-0.319,-0.3186,-0.3189,-0.3191,-0.3175,-0.3176,-0.317,-0.317,-0.317,0,-0.2949,-0.2974,-0.2993,-0.3023,-0.3044,-0.3062,-0.309,-0.311,-0.3133,-0.3139,-0.3126,-0.3147,-0.3144,-0.3169,-0.3176,-0.3177,-0.3166,-0.3171,-0.3191,-0.3193,-0.3195,-0.3178,-0.3178,-0.3172,-0.3172,-0.3172,-0.3172,0,-0.2967,-0.2994,-0.3008,-0.305,-0.3078,-0.3104,-0.3141,-0.3161,-0.3166,-0.3179,-0.3199,-0.3195,-0.3201,-0.3207,-0.3201,-0.322,-0.3204,-0.3198,-0.3176,-0.32,-0.3181,-0.3181,-0.3175,-0.3174,-0.3174,-0.3173,0,0,-0.2929,-0.3005,-0.3008,-0.3033,-0.3093,-0.3115,-0.3161,-0.3201,-0.322,-0.3234,-0.3253,-0.3266,-0.3252,-0.3256,-0.3249,-0.3247,-0.3248,-0.3228,-0.3227,-0.321,-0.3231,-0.3214,-0.3211,-0.3244,-0.3245,-0.3245,-0.3211,0,-0.2933,-0.2987,-0.3029,-0.3078,-0.3108,-0.3153,-0.3195,-0.3233,-0.3255,-0.3277,-0.328,-0.3291,-0.3276,-0.3273,-0.3272,-0.3259,-0.3249,-0.3257,-0.3213,-0.3211,-0.3191,-0.3211,-0.3121,-0.3083,-0.321,-0.321,-0.321,0,-0.2931,-0.2967,-0.3016,-0.3093,-0.3109,-0.314,-0.3197,-0.3238,-0.3287,-0.3304,-0.3318,-0.332,-0.3326,-0.3304,-0.3287,-0.3293,-0.3262,-0.3246,-0.3244,-0.3216,-0.3194,-0.308,-0.3077,-0.3044,-0.3209,-0.3209,-0.3209,0,-0.2877,-0.2958,-0.2991,-0.3017,-0.3105,-0.3127,-0.3166,-0.3228,-0.3261,-0.3306,-0.3326,-0.334,-0.3336,-0.3316,-0.329,-0.3284,-0.3267,-0.3252,-0.3206,-0.3204,-0.3112,-0.3101,-0.3067,-0.3231,-0.3231,-0.3231,-0.3231,0,-0.2861,-0.2883,-0.2963,-0.2976,-0.3014,-0.3085,-0.3126,-0.3174,-0.3236,-0.3273,-0.3316,-0.3339,-0.3338,-0.3334,-0.3301,-0.3258,-0.3271,-0.3212,-0.3198,-0.3122,-0.3113,-0.3068,-0.3064,-0.323,-0.323,-0.323,-0.323,0,-0.2791,-0.2852,-0.2886,-0.2963,-0.2989,-0.3003,-0.3092,-0.3117,-0.3194,-0.3242,-0.3255,-0.3324,-0.3335,-0.3333,-0.3306,-0.3264,-0.3174,-0.3206,-0.3116,-0.3093,-0.302,-0.3021,-0.2939,-0.2864,-0.3145,-0.3145,-0.3144,0,-0.276,-0.2769,-0.2846,-0.286,-0.2887,-0.2933,-0.2966,-0.3068,-0.3111,-0.323,-0.3244,-0.3291,-0.3321,-0.3296,-0.3251,-0.3202,-0.3147,-0.3066,-0.3043,-0.3008,-0.2999,-0.2971,-0.2911,-0.2926,-0.2924,-0.2922,-0.2921,0,-0.2671,-0.2695,-0.2718,-0.2758,-0.2786,-0.283,-0.2891,-0.2927,-0.3053,-0.3117,-0.3193,-0.3229,-0.3263,-0.3206,-0.3164,-0.3104,-0.2989,-0.3028,-0.3007,-0.2843,-0.2792,-0.2715,-0.2957,-0.2904,-0.2906,-0.2907,-0.2908,-0.2909,-0.2577,-0.2575,-0.2605,-0.2626,-0.2664,-0.2686,-0.2677,-0.2785,-0.2845,-0.2937,-0.3069,-0.3141,-0.3139,-0.3091,-0.3026,-0.289,-0.2899,-0.2789,-0.2797,-0.2775,-0.2693,-0.2907,-0.2839,-0.284,-0.2842,-0.2842,-0.2843,0,-0.2451,-0.246,-0.2473,-0.2488,-0.2463,-0.2535,-0.259,-0.2573,-0.2608,-0.2799,-0.2882,-0.3022,-0.2949,-0.2944,-0.2839,-0.2695,-0.259,-0.2598,-0.2525,-0.2476,-0.267,-0.2652,-0.2522,-0.2522,-0.2522,-0.2522,-0.2522,-0.2522,-0.2384,-0.2342,-0.235,-0.2262,-0.2272,-0.2194,-0.2187,-0.2211,-0.2317,-0.247,-0.2666,-0.2871,-0.2842,-0.2929,-0.2736,-0.2586,-0.2457,-0.237,-0.237,-0.2513,-0.2531,-0.2548,-0.2531,-0.2378,-0.2377,-0.2097,-0.2095,-0.2093]},{"header":{"parameterUnit":"m.s-1","parameterCategory":2,"la1":30.2991,"la2":30.254,"lo1":-89.0895,"lo2":-89.0444,"dy":0.0017,"dx":0.0017,"nx":28,"ny":28,"refTime":"2024-02-17T09:00:00:Z","depth":"0","parameterNumber":3,"parameterNumberName":"V-component_of_CURRENTS"},"data":[0,0,0,0,0,0,0,0,0,0,0,0,0,0,0,0,0,0,0,0,0,0,0,0,0,0,0,0,0,0,0,0,0,0,0,0,0,0,0,0,0,0,0,0,0,0,0,0,0,0,0,0,0,0,0,0,0,0,-0.049,-0.0489,0,-0.04,-0.0399,-0.0398,-0.0335,-0.0335,-0.0334,-0.0334,-0.0217,-0.0215,-0.0212,0,0,0,0,0,0,0,0,0,0,0,0,0,-0.0571,-0.057,-0.049,-0.0489,-0.0488,-0.04,-0.0399,-0.0398,-0.0335,-0.0334,-0.0334,-0.0333,-0.0218,-0.0215,-0.0212,0,0,0,0,0,0,0,0,0,0,0,0,0,-0.0513,-0.057,-0.049,-0.0447,-0.0442,-0.0401,-0.0399,-0.0397,-0.0335,-0.0334,-0.0334,-0.0333,-0.0219,-0.0215,-0.0211,-0.0199,0,0,-0.0199,-0.0197,0,0,0,0,0,0,0,0,-0.0517,-0.051,-0.0454,-0.0449,-0.0444,-0.0379,-0.0385,-0.033,-0.0335,-0.0375,-0.0334,-0.0333,-0.027,-0.0262,-0.0245,-0.0194,-0.0189,-0.0199,-0.0196,-0.0195,-0.0193,0,0,0,0,0,0,0,-0.0521,-0.0514,-0.0454,-0.0453,-0.0447,-0.0419,-0.041,-0.0374,-0.0326,-0.0371,-0.0367,-0.0358,-0.0267,-0.025,-0.0242,-0.0187,-0.0199,-0.0195,-0.0193,-0.0191,-0.011,-0.011,0,0,0,0,0,0,-0.0536,-0.0518,-0.0456,-0.0451,-0.048,-0.0418,-0.0409,-0.04,-0.0327,-0.0315,-0.0359,-0.0356,-0.0257,-0.0247,-0.0238,-0.0215,-0.0195,-0.0191,-0.0188,-0.011,-0.011,-0.011,0,0,0,0,0,0,-0.0538,-0.0531,-0.046,-0.0483,-0.0472,-0.0418,-0.0408,-0.0398,-0.038,-0.0318,-0.0305,-0.0351,-0.0256,-0.0244,-0.0207,-0.021,-0.0189,-0.0185,-0.011,-0.011,-0.011,-0.0172,0,0,0,0,0,0,-0.0541,-0.0533,-0.0534,-0.0484,-0.0471,-0.0444,-0.0409,-0.0397,-0.0376,-0.0371,-0.0307,-0.0295,-0.0254,-0.0214,-0.0203,-0.0204,-0.0182,-0.0109,-0.011,-0.011,-0.0169,-0.0174,-0.0178,0,0,0,0,0,-0.0544,-0.055,-0.0535,-0.0528,-0.0474,-0.0444,-0.0436,-0.0394,-0.0377,-0.0375,-0.0329,-0.0297,-0.021,-0.0211,-0.0199,-0.0198,-0.0109,-0.011,-0.011,-0.0167,-0.0173,-0.0178,0,0,0,0,0,0,-0.0586,-0.0543,-0.0525,-0.0518,-0.0488,-0.0434,-0.0429,-0.0401,-0.0364,-0.0358,-0.0299,-0.0284,-0.0255,-0.022,-0.0223,-0.0177,-0.0155,-0.0153,-0.0203,-0.0208,-0.0212,-0.0222,-0.0179,0,0,0,0,0,-0.0597,-0.0592,-0.0546,-0.0542,-0.053,-0.0481,-0.0465,-0.0438,-0.0397,-0.0379,-0.0335,-0.0288,-0.0249,-0.0224,-0.0187,-0.0161,-0.0121,-0.0153,-0.0158,-0.0162,-0.0161,-0.0107,-0.0106,-0.0112,-0.0112,-0.0112,0,0,-0.0613,-0.059,-0.0586,-0.0551,-0.0524,-0.0514,-0.047,-0.0451,-0.0439,-0.0373,-0.0347,-0.0305,-0.0247,-0.0218,-0.0201,-0.0187,-0.014,-0.0162,-0.0166,-0.0163,-0.0107,-0.0106,-0.0106,-0.0113,-0.0113,-0.0113,0,0,-0.0648,-0.0622,-0.0631,-0.0609,-0.0575,-0.0543,-0.0542,-0.0493,-0.0467,-0.0437,-0.0388,-0.0346,-0.029,-0.0244,-0.0215,-0.0222,-0.017,-0.0215,-0.0237,-0.0185,-0.0184,-0.0182,-0.0138,-0.0132,-0.0212,-0.0212,-0.0212,0,-0.0671,-0.0673,-0.063,-0.0632,-0.062,-0.0562,-0.0569,-0.0533,-0.0479,-0.0458,-0.0439,-0.0346,-0.03,-0.025,-0.0252,-0.0231,-0.0197,-0.0222,-0.019,-0.0188,-0.0185,-0.014,-0.0133,-0.0215,-0.0214,-0.0214,-0.0214,0,-0.0708,-0.0712,-0.0716,-0.0698,-0.0678,-0.0677,-0.0622,-0.06,-0.0562,-0.0519,-0.0467,-0.0398,-0.034,-0.032,-0.0286,-0.0246,-0.0227,-0.0207,-0.0178,-0.0189,-0.014,-0.0131,-0.0219,-0.0218,-0.0217,-0.0216,0,0,-0.076,-0.0747,-0.0751,-0.0759,-0.0715,-0.0706,-0.0681,-0.0641,-0.0624,-0.0559,-0.0527,-0.0452,-0.0407,-0.0371,-0.0317,-0.0267,-0.0221,-0.0235,-0.0231,-0.0195,-0.0111,-0.0065,-0.005,-0.0197,-0.0196,-0.0195,-0.0087,0,-0.0807,-0.084,-0.0809,-0.0833,-0.0845,-0.0784,-0.0767,-0.0717,-0.0663,-0.0617,-0.0525,-0.0478,-0.0427,-0.0401,-0.0341,-0.025,-0.02,-0.0253,-0.0103,-0.0098,-0.0059,-0.0039,0.0,0.0103,-0.0078,-0.0076,-0.0075,0,-0.0857,-0.0873,-0.091,-0.0908,-0.0905,-0.0904,-0.0863,-0.0838,-0.0748,-0.0704,-0.0626,-0.055,-0.0457,-0.0421,-0.0261,-0.0298,-0.0215,-0.0142,-0.0136,-0.0064,-0.0035,0.0086,0.0126,0.0287,-0.0061,-0.0062,-0.0063,0,-0.0926,-0.0944,-0.0981,-0.0979,-0.096,-0.096,-0.0943,-0.087,-0.0849,-0.0755,-0.0726,-0.0598,-0.0532,-0.0408,-0.0249,-0.0258,-0.0074,-0.0065,0.0057,0.0061,0.014,0.0149,0.0353,0.0039,0.0039,0.0039,0.0038,0,-0.0992,-0.1021,-0.1021,-0.1042,-0.1082,-0.1032,-0.1045,-0.1003,-0.0936,-0.0911,-0.078,-0.073,-0.0527,-0.0391,-0.026,-0.0064,-0.0077,0.0062,0.0098,0.0119,0.0124,0.0304,0.0384,0.0043,0.0042,0.0041,0.004,0,-0.1063,-0.1062,-0.1108,-0.1114,-0.1119,-0.1146,-0.1133,-0.1135,-0.1056,-0.1017,-0.099,-0.0817,-0.0628,-0.042,-0.0199,-0.0073,0.0216,0.0167,0.0176,0.0211,0.0467,0.054,0.0798,0.0885,0.0319,0.0321,0.0323,0,-0.1103,-0.1135,-0.1176,-0.1216,-0.1225,-0.1253,-0.1272,-0.121,-0.1203,-0.1073,-0.1062,-0.0861,-0.0715,-0.0357,-0.0086,0.0182,0.0311,0.0361,0.0356,0.0503,0.0611,0.0664,0.0721,0.0435,0.0437,0.0439,0.0441,0,-0.1178,-0.1191,-0.1232,-0.1319,-0.1362,-0.1403,-0.1419,-0.1429,-0.1339,-0.1283,-0.1171,-0.1037,-0.0649,-0.0303,0.0073,0.0231,0.0505,0.0408,0.057,0.0735,0.0799,0.0891,0.0332,0.0458,0.0457,0.0455,0.0454,0.0454,-0.1229,-0.1287,-0.1346,-0.1426,-0.1482,-0.154,-0.1576,-0.157,-0.155,-0.1445,-0.1276,-0.103,-0.0477,0.0071,0.0252,0.0693,0.0662,0.0811,0.0892,0.0933,0.102,0.0494,0.0652,0.0651,0.0651,0.065,0.065,0,-0.1297,-0.1361,-0.1448,-0.1541,-0.1622,-0.1618,-0.1661,-0.1674,-0.1665,-0.1495,-0.1346,-0.0701,-0.0177,0.033,0.0973,0.1175,0.1206,0.1276,0.1366,0.1401,0.0952,0.0958,0.1177,0.1177,0.1177,0.1177,0.1177,0.1176,-0.1335,-0.1437,-0.1487,-0.1638,-0.1701,-0.1784,-0.181,-0.1808,-0.1698,-0.1416,-0.1046,-0.0739,0.0087,0.1143,0.1686,0.1694,0.185,0.1829,0.1919,0.1612,0.1574,0.1538,0.1563,0.1906,0.1907,0.2336,0.234,0.2344]}],[{"header":{"parameterUnit":"m.s-1","parameterCategory":2,"la1":30.2991,"la2":30.254,"lo1":-89.0895,"lo2":-89.0444,"dy":0.0017,"dx":0.0017,"nx":28,"ny":28,"refTime":"2024-02-17T09:00:00:Z","depth":"2","parameterNumber":2,"parameterNumberName":"U-component_of_CURRENTS"},"data":[0,0,0,0,0,0,0,0,0,0,0,0,0,0,0,0,0,0,0,0,0,0,0,0,0,0,0,0,0,0,0,0,0,0,0,0,0,0,0,0,0,0,0,0,0,0,0,0,0,0,0,0,0,0,0,0,0,0,-0.2971,-0.2972,0,-0.3004,-0.3004,-0.3004,-0.2979,-0.2978,-0.2978,-0.2977,-0.297,-0.2971,-0.2971,0,0,0,0,0,0,0,0,0,0,0,0,0,-0.2907,-0.2908,-0.2971,-0.2972,-0.2972,-0.3004,-0.3004,-0.3004,-0.2979,-0.2978,-0.2977,-0.2976,-0.297,-0.297,-0.2971,0,0,0,0,0,0,0,0,0,0,0,0,0,-0.2935,-0.2908,-0.2971,-0.2965,-0.2965,-0.3004,-0.3004,-0.3004,-0.298,-0.2978,-0.2977,-0.2976,-0.2969,-0.297,-0.2971,-0.3004,0,0,-0.2974,-0.2975,0,0,0,0,0,0,0,0,-0.2933,-0.2937,-0.2966,-0.2966,-0.2966,-0.2988,-0.2979,-0.3003,-0.298,-0.2972,-0.2977,-0.2975,-0.2975,-0.2975,-0.2982,-0.3003,-0.3003,-0.2974,-0.2975,-0.2975,-0.2976,0,0,0,0,0,0,0,-0.2931,-0.2935,-0.2982,-0.2966,-0.2967,-0.2968,-0.297,-0.2984,-0.2978,-0.2973,-0.2971,-0.2979,-0.2974,-0.2981,-0.2981,-0.3003,-0.2974,-0.2975,-0.2976,-0.2976,-0.3028,-0.3029,0,0,0,0,0,0,-0.2932,-0.2934,-0.2981,-0.2983,-0.2948,-0.297,-0.2973,-0.2981,-0.2979,-0.2978,-0.298,-0.2978,-0.298,-0.298,-0.2981,-0.3006,-0.2975,-0.2976,-0.2977,-0.3027,-0.3028,-0.3029,0,0,0,0,0,0,-0.2931,-0.2936,-0.298,-0.2961,-0.2966,-0.2973,-0.2982,-0.2982,-0.2985,-0.2985,-0.2983,-0.2982,-0.2979,-0.298,-0.299,-0.3006,-0.2977,-0.2978,-0.3026,-0.3028,-0.3029,-0.3065,0,0,0,0,0,0,-0.2929,-0.2935,-0.2939,-0.2961,-0.2968,-0.3002,-0.2984,-0.2984,-0.2993,-0.299,-0.2987,-0.2985,-0.2978,-0.2988,-0.2991,-0.3007,-0.2978,-0.3025,-0.3027,-0.3028,-0.3063,-0.3067,-0.3071,0,0,0,0,0,-0.2926,-0.2937,-0.2939,-0.2945,-0.2973,-0.3003,-0.3007,-0.3005,-0.2994,-0.3001,-0.2996,-0.2985,-0.2999,-0.299,-0.2992,-0.3009,-0.3025,-0.3027,-0.3028,-0.3061,-0.3066,-0.3071,0,0,0,0,0,0,-0.2909,-0.2937,-0.2939,-0.2956,-0.2978,-0.3,-0.3006,-0.301,-0.3013,-0.3007,-0.2999,-0.2997,-0.3013,-0.3008,-0.2998,-0.3028,-0.301,-0.3012,-0.3033,-0.3039,-0.3043,-0.3042,-0.2979,0,0,0,0,0,-0.2909,-0.2922,-0.2952,-0.2964,-0.2977,-0.2993,-0.3004,-0.3009,-0.3018,-0.3018,-0.3016,-0.3016,-0.3026,-0.3028,-0.3035,-0.3055,-0.3041,-0.3066,-0.307,-0.3074,-0.3075,-0.3071,-0.3075,-0.3035,-0.3035,-0.3035,0,0,-0.2905,-0.2922,-0.2928,-0.2961,-0.2976,-0.3005,-0.2995,-0.3017,-0.3038,-0.3018,-0.3035,-0.3034,-0.3035,-0.3054,-0.3061,-0.3049,-0.3078,-0.3076,-0.3079,-0.3078,-0.3073,-0.3077,-0.308,-0.3036,-0.3036,-0.3036,0,0,-0.2909,-0.292,-0.2936,-0.2961,-0.2993,-0.301,-0.3018,-0.3044,-0.3048,-0.3073,-0.3062,-0.3067,-0.3083,-0.3085,-0.3089,-0.3123,-0.3102,-0.3126,-0.3146,-0.3142,-0.3145,-0.3148,-0.3133,-0.3134,-0.3126,-0.3126,-0.3126,0,-0.2902,-0.2927,-0.2945,-0.2974,-0.2995,-0.3014,-0.3042,-0.3061,-0.3085,-0.3092,-0.3079,-0.3101,-0.3099,-0.3123,-0.3131,-0.3132,-0.3122,-0.3126,-0.3147,-0.3149,-0.3151,-0.3135,-0.3136,-0.3128,-0.3128,-0.3127,-0.3127,0,-0.292,-0.2946,-0.296,-0.3001,-0.3029,-0.3055,-0.3092,-0.3112,-0.3119,-0.3132,-0.3153,-0.315,-0.3156,-0.3163,-0.3157,-0.3176,-0.3161,-0.3154,-0.3133,-0.3157,-0.3139,-0.3139,-0.3131,-0.313,-0.3129,-0.3129,0,0,-0.2882,-0.2957,-0.296,-0.2985,-0.3044,-0.3066,-0.3112,-0.3151,-0.3171,-0.3187,-0.3206,-0.322,-0.3208,-0.3211,-0.3205,-0.3204,-0.3206,-0.3186,-0.3185,-0.3168,-0.3191,-0.3172,-0.3169,-0.3203,-0.3203,-0.3203,-0.3171,0,-0.2886,-0.294,-0.2981,-0.3029,-0.3059,-0.3103,-0.3145,-0.3183,-0.3205,-0.3229,-0.3232,-0.3245,-0.3231,-0.3229,-0.3229,-0.3217,-0.3208,-0.3215,-0.3172,-0.3171,-0.3148,-0.3169,-0.2867,-0.2813,-0.3171,-0.3171,-0.3171,0,-0.2885,-0.292,-0.2969,-0.3044,-0.306,-0.3091,-0.3148,-0.3188,-0.3237,-0.3255,-0.3271,-0.3274,-0.3281,-0.326,-0.3246,-0.3251,-0.3221,-0.3206,-0.3205,-0.3174,-0.3151,-0.2847,-0.2799,-0.317,-0.317,-0.317,-0.317,0,-0.2832,-0.2912,-0.2945,-0.297,-0.3057,-0.3078,-0.3117,-0.3179,-0.3212,-0.3258,-0.3279,-0.3294,-0.3292,-0.3274,-0.3249,-0.3244,-0.3228,-0.3213,-0.3167,-0.3164,-0.2892,-0.2866,-0.3194,-0.3194,-0.3194,-0.3194,-0.3194,0,-0.2816,-0.2839,-0.2917,-0.293,-0.2968,-0.3038,-0.3079,-0.3127,-0.3189,-0.3226,-0.327,-0.3293,-0.3295,-0.3291,-0.326,-0.3218,-0.3233,-0.3173,-0.3159,-0.2898,-0.2875,-0.3173,-0.3171,-0.3193,-0.3193,-0.3193,-0.3193,0,-0.2748,-0.2808,-0.2842,-0.2918,-0.2943,-0.2958,-0.3047,-0.3071,-0.3148,-0.3196,-0.321,-0.328,-0.3291,-0.3291,-0.3265,-0.3225,-0.3191,-0.3167,-0.2866,-0.2819,-0.3122,-0.3123,-0.3108,-0.3107,-0.3106,-0.3105,-0.3105,0,-0.2717,-0.2727,-0.2803,-0.2817,-0.2844,-0.289,-0.2923,-0.3024,-0.3066,-0.3184,-0.3198,-0.3246,-0.3269,-0.3245,-0.3148,-0.3086,-0.3179,-0.2806,-0.2753,-0.3127,-0.3116,-0.3117,-0.3119,-0.2389,-0.2383,-0.2378,-0.2373,0,-0.263,-0.2655,-0.2677,-0.2717,-0.2745,-0.2789,-0.2849,-0.2883,-0.3007,-0.3064,-0.3139,-0.3168,-0.3154,-0.2961,-0.29,-0.2824,-0.2798,-0.2705,-0.3136,-0.2495,-0.2457,-0.2445,-0.2467,-0.2327,-0.2332,-0.2335,-0.2338,-0.234,-0.2539,-0.2536,-0.2566,-0.2587,-0.2625,-0.2645,-0.2636,-0.2721,-0.2769,-0.2797,-0.2952,-0.2891,-0.2844,-0.2608,-0.2484,-0.2368,-0.2576,-0.2433,-0.2444,-0.2462,-0.2422,-0.2389,-0.2237,-0.224,-0.2244,-0.2247,-0.2249,0,-0.2407,-0.2424,-0.2436,-0.2451,-0.2417,-0.2498,-0.255,-0.2492,-0.2488,-0.255,-0.2574,-0.2301,-0.2175,-0.2154,-0.1892,-0.1872,-0.1797,-0.1806,-0.1672,-0.1719,-0.1761,-0.1681,-0.1301,-0.1299,-0.1296,-0.1294,0,0,-0.2338,-0.2293,-0.2301,-0.221,-0.2227,-0.2133,-0.2124,-0.2072,-0.2065,-0.1979,-0.1933,-0.2056,-0.2097,-0.169,-0.1592,-0.1411,-0.1554,-0.134,-0.2093,-0.1982,-0.2021,-0.211,-0.2041,0,0,0,0,0]},{"header":{"parameterUnit":"m.s-1","parameterCategory":2,"la1":30.2991,"la2":30.254,"lo1":-89.0895,"lo2":-89.0444,"dy":0.0017,"dx":0.0017,"nx":28,"ny":28,"refTime":"2024-02-17T09:00:00:Z","depth":"2","parameterNumber":3,"parameterNumberName":"V-component_of_CURRENTS"},"data":[0,0,0,0,0,0,0,0,0,0,0,0,0,0,0,0,0,0,0,0,0,0,0,0,0,0,0,0,0,0,0,0,0,0,0,0,0,0,0,0,0,0,0,0,0,0,0,0,0,0,0,0,0,0,0,0,0,0,-0.0423,-0.0423,0,-0.0334,-0.0333,-0.0332,-0.0271,-0.027,-0.027,-0.027,-0.0155,-0.0152,-0.015,0,0,0,0,0,0,0,0,0,0,0,0,0,-0.0503,-0.0502,-0.0424,-0.0423,-0.0421,-0.0335,-0.0333,-0.0332,-0.0271,-0.027,-0.027,-0.0269,-0.0156,-0.0153,-0.0149,0,0,0,0,0,0,0,0,0,0,0,0,0,-0.0446,-0.0502,-0.0424,-0.0381,-0.0376,-0.0335,-0.0333,-0.0332,-0.0271,-0.027,-0.027,-0.0269,-0.0157,-0.0153,-0.0149,-0.0136,0,0,-0.0137,-0.0135,0,0,0,0,0,0,0,0,-0.045,-0.0443,-0.0388,-0.0384,-0.0379,-0.0314,-0.0319,-0.0265,-0.0271,-0.031,-0.027,-0.0269,-0.0207,-0.0198,-0.0182,-0.013,-0.0125,-0.0136,-0.0134,-0.0132,-0.0131,0,0,0,0,0,0,0,-0.0454,-0.0447,-0.0387,-0.0387,-0.0381,-0.0354,-0.0345,-0.0309,-0.0262,-0.0307,-0.0302,-0.0294,-0.0204,-0.0186,-0.0179,-0.0124,-0.0136,-0.0133,-0.013,-0.0129,-0.0048,-0.0048,0,0,0,0,0,0,-0.0469,-0.0451,-0.039,-0.0385,-0.0414,-0.0353,-0.0343,-0.0335,-0.0262,-0.0251,-0.0294,-0.0291,-0.0193,-0.0184,-0.0175,-0.0153,-0.0132,-0.0128,-0.0126,-0.0048,-0.0048,-0.0048,0,0,0,0,0,0,-0.0471,-0.0464,-0.0394,-0.0416,-0.0405,-0.0352,-0.0343,-0.0333,-0.0316,-0.0253,-0.0242,-0.0287,-0.0193,-0.018,-0.0145,-0.0148,-0.0127,-0.0123,-0.0047,-0.0048,-0.0048,-0.011,0,0,0,0,0,0,-0.0474,-0.0466,-0.0468,-0.0417,-0.0405,-0.0378,-0.0343,-0.0332,-0.0312,-0.0307,-0.0244,-0.0232,-0.0191,-0.0151,-0.0141,-0.0142,-0.012,-0.0047,-0.0047,-0.0048,-0.0108,-0.0113,-0.0117,0,0,0,0,0,-0.0477,-0.0483,-0.0468,-0.0461,-0.0408,-0.0378,-0.037,-0.0329,-0.0312,-0.031,-0.0266,-0.0234,-0.0147,-0.0148,-0.0136,-0.0136,-0.0047,-0.0047,-0.0048,-0.0106,-0.0112,-0.0117,0,0,0,0,0,0,-0.0519,-0.0476,-0.0459,-0.0452,-0.0422,-0.0369,-0.0364,-0.0336,-0.0299,-0.0295,-0.0235,-0.0221,-0.0193,-0.0158,-0.016,-0.0115,-0.0092,-0.0091,-0.0141,-0.0146,-0.015,-0.016,-0.0116,0,0,0,0,0,-0.0531,-0.0525,-0.0479,-0.0476,-0.0464,-0.0416,-0.04,-0.0373,-0.0332,-0.0315,-0.0271,-0.0225,-0.0186,-0.0162,-0.0125,-0.0098,-0.0059,-0.0091,-0.0096,-0.01,-0.01,-0.0045,-0.0045,-0.005,-0.005,-0.005,0,0,-0.0547,-0.0523,-0.052,-0.0485,-0.0458,-0.0448,-0.0405,-0.0387,-0.0374,-0.0309,-0.0284,-0.0242,-0.0184,-0.0155,-0.0139,-0.0124,-0.0079,-0.01,-0.0104,-0.0102,-0.0046,-0.0045,-0.0044,-0.0051,-0.0051,-0.005,0,0,-0.0582,-0.0556,-0.0565,-0.0543,-0.051,-0.0478,-0.0477,-0.0429,-0.0403,-0.0374,-0.0325,-0.0284,-0.0228,-0.0182,-0.0153,-0.016,-0.0109,-0.0153,-0.0176,-0.0124,-0.0123,-0.0121,-0.0077,-0.0071,-0.015,-0.015,-0.015,0,-0.0605,-0.0607,-0.0564,-0.0566,-0.0555,-0.0497,-0.0504,-0.0469,-0.0415,-0.0394,-0.0377,-0.0284,-0.0238,-0.0188,-0.0191,-0.0169,-0.0135,-0.0161,-0.013,-0.0127,-0.0125,-0.0079,-0.0072,-0.0153,-0.0153,-0.0153,-0.0152,0,-0.0642,-0.0646,-0.065,-0.0632,-0.0612,-0.0611,-0.0557,-0.0535,-0.0498,-0.0456,-0.0404,-0.0336,-0.0279,-0.0259,-0.0225,-0.0185,-0.0167,-0.0147,-0.0118,-0.0128,-0.008,-0.0071,-0.0158,-0.0157,-0.0156,-0.0155,0,0,-0.0694,-0.0681,-0.0685,-0.0693,-0.0649,-0.064,-0.0616,-0.0576,-0.056,-0.0496,-0.0465,-0.039,-0.0346,-0.031,-0.0257,-0.0206,-0.0162,-0.0175,-0.0171,-0.0135,-0.0052,-0.0008,0.0007,-0.0138,-0.0136,-0.0135,-0.0028,0,-0.0741,-0.0774,-0.0742,-0.0767,-0.0778,-0.0718,-0.0701,-0.0652,-0.0599,-0.0553,-0.0462,-0.0416,-0.0366,-0.034,-0.0281,-0.019,-0.0141,-0.0193,-0.0044,-0.0039,-0.0001,0.0018,-0.0006,0.0091,-0.0019,-0.0017,-0.0016,0,-0.079,-0.0806,-0.0843,-0.084,-0.0838,-0.0837,-0.0797,-0.0772,-0.0683,-0.0639,-0.0563,-0.0489,-0.0397,-0.036,-0.0202,-0.0239,-0.0156,-0.0084,-0.0077,-0.0007,0.0022,0.0086,0.0112,-0.0001,-0.0002,-0.0003,-0.0004,0,-0.0859,-0.0877,-0.0913,-0.0911,-0.0892,-0.0893,-0.0876,-0.0804,-0.0783,-0.0691,-0.0662,-0.0536,-0.0471,-0.0348,-0.019,-0.0199,-0.0016,-0.0006,0.0113,0.0117,0.0143,0.0147,0.0097,0.0097,0.0097,0.0096,0.0096,0,-0.0925,-0.0953,-0.0954,-0.0974,-0.1014,-0.0965,-0.0978,-0.0936,-0.087,-0.0845,-0.0717,-0.0666,-0.0466,-0.0331,-0.0201,-0.0007,-0.0019,0.0118,0.0154,0.012,0.0121,0.0077,0.0073,0.01,0.0099,0.0099,0.0098,0,-0.0995,-0.0994,-0.104,-0.1045,-0.1051,-0.1078,-0.1065,-0.1068,-0.0989,-0.095,-0.0924,-0.0753,-0.0566,-0.036,-0.014,-0.0016,0.0157,0.0222,0.0169,0.0197,0.0253,0.0244,0.0367,0.0369,0.0371,0.0373,0.0375,0,-0.1034,-0.1066,-0.1107,-0.1146,-0.1156,-0.1184,-0.1203,-0.1142,-0.1134,-0.1006,-0.0993,-0.0796,-0.0648,-0.0295,-0.0033,0.023,0.0218,0.0348,0.0334,0.0261,0.0284,0.0272,0.0261,0.034,0.0341,0.0342,0.0343,0,-0.1108,-0.1122,-0.1163,-0.1249,-0.1292,-0.1332,-0.1347,-0.1356,-0.1267,-0.1208,-0.1096,-0.0962,-0.0586,-0.027,0.0098,0.0236,0.0309,0.0376,0.0329,0.0274,0.0245,0.0264,0.0252,0.0351,0.035,0.0349,0.0349,0.0349,-0.1159,-0.1216,-0.1274,-0.1354,-0.1409,-0.1466,-0.1501,-0.1475,-0.1449,-0.1307,-0.1172,-0.0914,-0.0588,-0.0048,0.0195,0.0425,0.0407,0.0463,0.0456,0.0449,0.0426,0.0402,0.0533,0.0533,0.0533,0.0534,0.0534,0,-0.1216,-0.129,-0.1375,-0.1467,-0.1533,-0.1544,-0.1584,-0.1555,-0.1515,-0.1326,-0.1155,-0.0764,-0.0383,-0.0053,0.0327,0.0541,0.051,0.0565,0.0487,0.0478,0.047,0.0444,0.0559,0.0559,0.056,0.0561,0,0,-0.1251,-0.1347,-0.1396,-0.1537,-0.1608,-0.1665,-0.1689,-0.1613,-0.1473,-0.1271,-0.1055,-0.0742,-0.0352,-0.0071,0.0202,0.0395,0.0371,0.0403,0.0359,0.0225,0.0215,0.039,0.0337,0,0,0,0,0]}],[{"header":{"parameterUnit":"m.s-1","parameterCategory":2,"la1":30.2991,"la2":30.254,"lo1":-89.0895,"lo2":-89.0444,"dy":0.0017,"dx":0.0017,"nx":28,"ny":28,"refTime":"2024-02-17T09:00:00:Z","depth":"4","parameterNumber":2,"parameterNumberName":"U-component_of_CURRENTS"},"data":[0,0,0,0,0,0,0,0,0,0,0,0,0,0,0,0,0,0,0,0,0,0,0,0,0,0,0,0,0,0,0,0,0,0,0,0,0,0,0,0,0,0,0,0,0,0,0,0,0,0,0,0,0,0,0,0,0,0,-0.1916,-0.1917,0,-0.199,-0.1991,-0.1992,-0.2037,-0.2037,-0.2038,-0.2038,-0.2114,-0.2116,-0.2117,0,0,0,0,0,0,0,0,0,0,0,0,0,-0.1812,-0.1813,-0.1916,-0.1917,-0.1918,-0.199,-0.1991,-0.1992,-0.2037,-0.2037,-0.2038,-0.2038,-0.2114,-0.2116,-0.2118,0,0,0,0,0,0,0,0,0,0,0,0,0,-0.1867,-0.1814,-0.1916,-0.195,-0.1954,-0.199,-0.1991,-0.1992,-0.2037,-0.2037,-0.2038,-0.2038,-0.2113,-0.2115,-0.2118,-0.2122,0,0,-0.2126,-0.2127,0,0,0,0,0,0,0,0,-0.1864,-0.187,-0.1944,-0.1948,-0.1953,-0.2007,-0.1983,-0.2036,-0.2036,-0.2003,-0.2038,-0.2039,-0.2079,-0.2084,-0.2094,-0.2125,-0.2129,-0.2126,-0.2127,-0.2128,-0.2129,0,0,0,0,0,0,0,-0.186,-0.1868,-0.1943,-0.1945,-0.1951,-0.1962,-0.1971,-0.1993,-0.2036,-0.2006,-0.201,-0.2021,-0.2081,-0.2092,-0.2097,-0.213,-0.2126,-0.2128,-0.2129,-0.213,-0.2248,-0.2249,0,0,0,0,0,0,-0.1854,-0.1864,-0.1941,-0.1946,-0.1911,-0.1964,-0.1973,-0.1987,-0.2036,-0.2044,-0.2021,-0.2023,-0.2087,-0.2094,-0.2099,-0.2187,-0.2128,-0.2131,-0.2132,-0.2246,-0.2248,-0.225,0,0,0,0,0,0,-0.1852,-0.186,-0.1938,-0.1908,-0.1919,-0.1965,-0.1981,-0.1988,-0.2033,-0.2047,-0.2055,-0.2062,-0.2088,-0.2096,-0.2148,-0.2188,-0.2132,-0.2134,-0.2244,-0.2247,-0.2249,-0.2312,0,0,0,0,0,0,-0.1848,-0.1859,-0.1884,-0.1908,-0.192,-0.1981,-0.1981,-0.1989,-0.2038,-0.2043,-0.2084,-0.209,-0.2089,-0.2145,-0.2151,-0.219,-0.2136,-0.2242,-0.2245,-0.2248,-0.2307,-0.2316,-0.2323,0,0,0,0,0,-0.1844,-0.1869,-0.1884,-0.1895,-0.1947,-0.1983,-0.1991,-0.2024,-0.204,-0.2065,-0.2094,-0.209,-0.2168,-0.2148,-0.2155,-0.2196,-0.2241,-0.2245,-0.2248,-0.2304,-0.2314,-0.2323,0,0,0,0,0,0,-0.1838,-0.1877,-0.1894,-0.1931,-0.1966,-0.1992,-0.2024,-0.2044,-0.2088,-0.2103,-0.2112,-0.212,-0.2179,-0.2179,-0.2157,-0.2238,-0.2204,-0.2209,-0.2244,-0.2254,-0.2261,-0.2255,-0.2138,0,0,0,0,0,-0.1847,-0.188,-0.1914,-0.1948,-0.1968,-0.2003,-0.2029,-0.2053,-0.2086,-0.2108,-0.2136,-0.2166,-0.2194,-0.2218,-0.224,-0.2287,-0.2269,-0.2318,-0.2325,-0.2332,-0.2332,-0.2335,-0.2342,-0.2262,-0.2262,-0.2262,0,0,-0.1855,-0.1882,-0.1902,-0.195,-0.1981,-0.2018,-0.2021,-0.2072,-0.2112,-0.2109,-0.2181,-0.2198,-0.2212,-0.2264,-0.229,-0.2274,-0.2347,-0.2337,-0.2342,-0.2338,-0.2339,-0.2347,-0.2353,-0.2264,-0.2264,-0.2263,0,0,-0.1875,-0.1912,-0.1943,-0.1977,-0.2032,-0.2054,-0.2076,-0.2124,-0.2159,-0.222,-0.2227,-0.2267,-0.2319,-0.2332,-0.2343,-0.2408,-0.2386,-0.2425,-0.2463,-0.2467,-0.2473,-0.2478,-0.2466,-0.247,-0.243,-0.2431,-0.2431,0,-0.1886,-0.1927,-0.1959,-0.1998,-0.2033,-0.2073,-0.2115,-0.2154,-0.2216,-0.2245,-0.2255,-0.2331,-0.2347,-0.2394,-0.2419,-0.2425,-0.2418,-0.2427,-0.2476,-0.2481,-0.2485,-0.2471,-0.2474,-0.2434,-0.2434,-0.2433,-0.2433,0,-0.1915,-0.1966,-0.199,-0.2052,-0.2093,-0.2138,-0.219,-0.2243,-0.2289,-0.2319,-0.239,-0.2412,-0.2449,-0.2469,-0.2468,-0.2514,-0.2496,-0.2483,-0.2449,-0.2497,-0.2479,-0.2481,-0.2439,-0.2438,-0.2437,-0.2436,0,0,-0.1887,-0.1991,-0.2003,-0.2045,-0.2128,-0.2159,-0.2236,-0.23,-0.2348,-0.2411,-0.2463,-0.2518,-0.2528,-0.2541,-0.2548,-0.2559,-0.2587,-0.2543,-0.2542,-0.2524,-0.2589,-0.2433,-0.242,-0.2586,-0.2587,-0.2588,-0.2565,0,-0.1903,-0.198,-0.2032,-0.2114,-0.2155,-0.2223,-0.2286,-0.2353,-0.241,-0.2471,-0.2505,-0.2556,-0.2556,-0.2581,-0.2595,-0.259,-0.2596,-0.2593,-0.2551,-0.2549,-0.2399,-0.2418,-0.259,-0.2566,-0.2567,-0.2567,-0.2567,0,-0.1904,-0.1958,-0.2039,-0.2145,-0.2171,-0.2228,-0.2327,-0.2388,-0.2475,-0.2521,-0.2575,-0.26,-0.2641,-0.2628,-0.264,-0.2642,-0.2623,-0.2611,-0.261,-0.244,-0.2396,-0.2509,-0.257,-0.257,-0.257,-0.257,-0.2569,0,-0.1844,-0.196,-0.2026,-0.2063,-0.2186,-0.2241,-0.2305,-0.2401,-0.2453,-0.2548,-0.2588,-0.264,-0.2666,-0.2663,-0.265,-0.2651,-0.2642,-0.2634,-0.2473,-0.2462,-0.2583,-0.2577,-0.2631,-0.2631,-0.2631,-0.2631,-0.2631,0,-0.1816,-0.1872,-0.201,-0.2042,-0.2122,-0.2216,-0.2301,-0.2374,-0.2469,-0.2517,-0.2603,-0.2629,-0.2678,-0.2681,-0.266,-0.2562,-0.2647,-0.2471,-0.2442,-0.261,-0.2608,-0.2584,-0.2579,-0.263,-0.2631,-0.2631,-0.2631,0,-0.1731,-0.1829,-0.1908,-0.2047,-0.2097,-0.2148,-0.2288,-0.2331,-0.2444,-0.2506,-0.2536,-0.2625,-0.2622,-0.2642,-0.2631,-0.2549,-0.2488,-0.2434,-0.2609,-0.2592,-0.2304,-0.2303,-0.2241,-0.2235,-0.223,-0.2226,-0.2223,0,-0.1691,-0.1727,-0.1886,-0.1935,-0.2003,-0.2103,-0.2161,-0.2297,-0.234,-0.2476,-0.2481,-0.2534,-0.2572,-0.2422,-0.2466,-0.2397,-0.2373,-0.2325,-0.2315,-0.2284,-0.2264,-0.227,-0.2275,-0.2215,-0.2214,-0.2213,-0.2211,0,-0.16,-0.1674,-0.1736,-0.1836,-0.1914,-0.1991,-0.2087,-0.2101,-0.2242,-0.2373,-0.236,-0.2344,-0.2335,-0.231,-0.227,-0.2227,-0.2345,-0.2273,-0.2283,-0.2273,-0.2252,-0.2238,-0.2249,-0.2194,-0.2197,-0.2198,-0.2199,0,-0.1528,-0.1549,-0.1641,-0.1707,-0.1802,-0.183,-0.1909,-0.1956,-0.2015,-0.2174,-0.2163,-0.2223,-0.2315,-0.222,-0.2187,-0.2126,-0.2093,-0.2021,-0.2044,-0.2063,-0.2013,-0.1961,-0.1778,0,0,0,0,0,-0.1443,-0.1449,-0.1504,-0.1568,-0.1651,-0.1702,-0.1832,-0.1913,-0.2057,-0.1995,-0.2074,-0.2059,-0.2009,-0.2041,-0.1937,-0.2092,-0.2094,-0.1961,-0.2023,-0.21,-0.212,-0.2076,0,0,0,0,0,0,-0.1387,-0.1433,-0.1449,-0.1422,-0.1436,-0.1509,-0.1578,-0.1687,-0.1673,-0.1828,-0.181,-0.193,-0.1907,-0.2029,-0.1891,-0.1898,-0.1894,-0.2013,-0.2007,-0.2089,-0.2107,-0.2123,-0.2084,0,0,0,0,0]},{"header":{"parameterUnit":"m.s-1","parameterCategory":2,"la1":30.2991,"la2":30.254,"lo1":-89.0895,"lo2":-89.0444,"dy":0.0017,"dx":0.0017,"nx":28,"ny":28,"refTime":"2024-02-17T09:00:00:Z","depth":"4","parameterNumber":3,"parameterNumberName":"V-component_of_CURRENTS"},"data":[0,0,0,0,0,0,0,0,0,0,0,0,0,0,0,0,0,0,0,0,0,0,0,0,0,0,0,0,0,0,0,0,0,0,0,0,0,0,0,0,0,0,0,0,0,0,0,0,0,0,0,0,0,0,0,0,0,0,-0.0152,-0.0152,0,-0.0099,-0.0098,-0.0097,-0.0056,-0.0056,-0.0055,-0.0055,0.0024,0.0026,0.0027,0,0,0,0,0,0,0,0,0,0,0,0,0,-0.0186,-0.0186,-0.0152,-0.0152,-0.0151,-0.0099,-0.0098,-0.0097,-0.0056,-0.0056,-0.0055,-0.0055,0.0023,0.0025,0.0028,0,0,0,0,0,0,0,0,0,0,0,0,0,-0.0155,-0.0186,-0.0153,-0.0125,-0.0122,-0.0099,-0.0098,-0.0097,-0.0056,-0.0056,-0.0055,-0.0055,0.0022,0.0025,0.0028,0.0036,0,0,0.0036,0.0037,0,0,0,0,0,0,0,0,-0.0157,-0.0154,-0.013,-0.0127,-0.0124,-0.0084,-0.0081,-0.0051,-0.0056,-0.008,-0.0055,-0.0055,-0.0011,-0.0006,0.0005,0.004,0.0043,0.0036,0.0038,0.0039,0.004,0,0,0,0,0,0,0,-0.0159,-0.0156,-0.013,-0.0129,-0.0126,-0.0104,-0.01,-0.0075,-0.0047,-0.0078,-0.0075,-0.0071,-0.0009,0.0002,0.0007,0.0044,0.0036,0.0039,0.0041,0.0042,0.0091,0.009,0,0,0,0,0,0,-0.017,-0.0158,-0.0132,-0.0129,-0.0141,-0.0104,-0.0099,-0.0097,-0.0048,-0.0041,-0.0071,-0.0069,-0.0003,0.0004,0.001,0.0016,0.0039,0.0042,0.0043,0.0091,0.0091,0.009,0,0,0,0,0,0,-0.0171,-0.0169,-0.0134,-0.0143,-0.0137,-0.0105,-0.0102,-0.0096,-0.0087,-0.0044,-0.0035,-0.007,-0.0002,0.0006,0.0027,0.002,0.0043,0.0046,0.0092,0.0091,0.0091,0.0032,0,0,0,0,0,0,-0.0173,-0.0169,-0.0175,-0.0144,-0.0137,-0.0129,-0.0102,-0.0095,-0.0086,-0.0082,-0.0039,-0.0031,-0.0001,0.0023,0.003,0.0024,0.0048,0.0092,0.0091,0.0091,0.0035,0.003,0.0026,0,0,0,0,0,-0.0174,-0.0185,-0.0176,-0.0173,-0.0145,-0.013,-0.0124,-0.0099,-0.0086,-0.0088,-0.0057,-0.0033,0.0024,0.0025,0.0033,0.0028,0.0092,0.0091,0.0091,0.0037,0.0031,0.0026,0,0,0,0,0,0,-0.0203,-0.0181,-0.0171,-0.0174,-0.0158,-0.0123,-0.0124,-0.0105,-0.0082,-0.008,-0.0036,-0.0027,-0.0012,0.0015,0.0015,0.004,0.0062,0.0063,0.0018,0.0013,0.0008,-0.0,0.005,0,0,0,0,0,-0.0213,-0.0216,-0.0189,-0.0194,-0.0189,-0.0158,-0.015,-0.0133,-0.0107,-0.0096,-0.0067,-0.0035,-0.0008,0.0007,0.0032,0.0046,0.0082,0.0049,0.0044,0.004,0.0039,0.0085,0.0085,0.0088,0.0088,0.0088,0,0,-0.0226,-0.0215,-0.0217,-0.0201,-0.0186,-0.0186,-0.0152,-0.0145,-0.0143,-0.0092,-0.0083,-0.0052,-0.0009,0.0006,0.0015,0.0028,0.0057,0.0039,0.0035,0.0037,0.0084,0.0084,0.0084,0.0087,0.0087,0.0087,0,0,-0.0256,-0.0245,-0.0258,-0.0248,-0.0233,-0.0212,-0.0214,-0.0185,-0.0171,-0.0158,-0.012,-0.0092,-0.0057,-0.0023,-0.0002,-0.0015,0.003,-0.0011,-0.0036,0.0008,0.0008,0.0009,0.0051,0.0056,-0.001,-0.001,-0.001,0,-0.0274,-0.0286,-0.026,-0.027,-0.0268,-0.0229,-0.0242,-0.0221,-0.019,-0.0179,-0.0165,-0.0103,-0.0069,-0.0037,-0.0042,-0.0025,0.0006,-0.0021,0.0002,0.0004,0.0005,0.0048,0.0055,-0.0013,-0.0013,-0.0013,-0.0012,0,-0.0309,-0.0322,-0.033,-0.033,-0.0323,-0.0329,-0.0298,-0.0289,-0.0266,-0.0239,-0.0209,-0.0156,-0.0118,-0.0103,-0.0076,-0.0049,-0.0029,-0.0012,0.0014,0.0002,0.0048,0.0055,-0.0017,-0.0016,-0.0016,-0.0015,0,0,-0.0341,-0.0354,-0.0359,-0.0375,-0.0357,-0.0358,-0.0352,-0.0334,-0.0329,-0.0288,-0.0273,-0.022,-0.0185,-0.0159,-0.0116,-0.0074,-0.0036,-0.0044,-0.004,-0.0005,0.0061,0.0063,0.0072,-0.0015,-0.0014,-0.0014,0.0087,0,-0.0379,-0.042,-0.041,-0.0446,-0.0462,-0.043,-0.0429,-0.0404,-0.0372,-0.0346,-0.0278,-0.0249,-0.0207,-0.0189,-0.0141,-0.0061,-0.0018,-0.0065,0.0071,0.0075,0.0076,0.008,-0.001,0.0093,0.0095,0.0096,0.0097,0,-0.0415,-0.0439,-0.0485,-0.0509,-0.0512,-0.0526,-0.0516,-0.0509,-0.0454,-0.0427,-0.0375,-0.0318,-0.0247,-0.0213,-0.0079,-0.0112,-0.0036,0.003,0.0036,0.0064,0.0091,0.0111,0.0111,0.011,0.0109,0.0108,0.0107,0,-0.045,-0.0492,-0.0535,-0.0543,-0.0556,-0.0573,-0.0576,-0.0538,-0.0533,-0.0476,-0.0458,-0.0363,-0.0311,-0.0206,-0.0068,-0.0075,0.0085,0.0095,0.0172,0.0173,0.0167,0.0165,0.0185,0.0185,0.0185,0.0185,0.0184,0,-0.0488,-0.0525,-0.0563,-0.0587,-0.0639,-0.0625,-0.0657,-0.0639,-0.0607,-0.0594,-0.0507,-0.0466,-0.0307,-0.0193,-0.0077,0.0074,0.0082,0.017,0.02,0.0139,0.0133,0.0172,0.0169,0.0189,0.0188,0.0187,0.0186,0,-0.0515,-0.054,-0.0597,-0.064,-0.066,-0.0695,-0.0726,-0.0738,-0.0699,-0.0676,-0.066,-0.0534,-0.0383,-0.0218,-0.0028,0.0061,0.0204,0.0255,0.0181,0.0205,0.0263,0.0256,0.0343,0.0344,0.0345,0.0345,0.0346,0,-0.0528,-0.0561,-0.0643,-0.0689,-0.0718,-0.0769,-0.0802,-0.079,-0.0789,-0.0712,-0.0697,-0.0554,-0.0452,-0.0178,-0.0014,0.0214,0.0243,0.0312,0.0283,0.0259,0.028,0.0271,0.0264,0.0347,0.0347,0.0348,0.0348,0,-0.055,-0.0588,-0.0637,-0.0736,-0.0798,-0.0855,-0.0893,-0.0898,-0.0858,-0.0827,-0.071,-0.056,-0.0383,-0.0175,0.0011,0.0168,0.0262,0.032,0.0319,0.0293,0.0265,0.0283,0.0275,0.0351,0.035,0.035,0.035,0,-0.0565,-0.0611,-0.0687,-0.0768,-0.0853,-0.0909,-0.0931,-0.0912,-0.0899,-0.0799,-0.0761,-0.0564,-0.0442,-0.0198,-0.0032,0.013,0.0162,0.0199,0.0205,0.0204,0.0131,0.0074,0.0128,0,0,0,0,0,-0.057,-0.0627,-0.0712,-0.0802,-0.0886,-0.093,-0.0972,-0.0972,-0.0933,-0.0854,-0.08,-0.063,-0.0362,-0.0247,-0.0083,-0.0036,0.0173,0.0157,0.0215,0.0366,0.0363,0.03,0,0,0,0,0,0,-0.0576,-0.0658,-0.0708,-0.0807,-0.087,-0.0951,-0.0981,-0.0962,-0.0903,-0.084,-0.0696,-0.0599,-0.0341,-0.0447,-0.0079,-0.0031,0.0024,0.029,0.0293,0.0368,0.0365,0.0362,0.0297,0,0,0,0,0]}]]